Location: Observatoire de Paris
(48.8363°N, 2.3365°E)
Time: 19:43:33
(UTC+01:00)

Courier 1B Rocket - All Passes

Search period start: 27 July 2021 00:00
Search period end: 06 August 2021 00:00
Orbit: 920 x 1202 km, 28.2° (Epoch: 26 July)

Date Brightness Start Highest point End Pass type
(mag) Time Alt. Az. Time Alt. Az. Time Alt. Az.
28 Jul - 06:24:06 10° S 06:24:39 10° S 06:25:12 10° S daylight
29 Jul - 05:23:15 10° S 05:24:05 10° S 05:24:55 10° S daylight
31 Jul - 05:14:01 10° SSW 05:14:53 10° S 05:15:44 10° S daylight
01 Aug - 04:12:53 10° SSW 04:14:18 11° S 04:15:43 10° SSE visible
02 Aug - 03:12:24 10° S 03:13:42 11° S 03:15:00 10° SSE visible
03 Aug - 04:03:32 10° SSW 04:05:05 11° S 04:06:38 10° S visible
04 Aug - 03:02:20 10° SSW 03:04:28 12° S 03:06:35 10° SSE visible
05 Aug - 02:01:38 10° SSW 02:03:50 12° S 02:06:00 10° SSE visible
05 Aug - 03:55:04 10° SSW 03:55:50 10° S 03:56:37 10° S visible
